Weather History for Yuma MCAS, AZ

Change the Weather History Date:

Wednesday, October 2, 2013

  Actual Average Record
Temperature  
Mean Temperature 83 °F 83 °F  
Max Temperature 96 °F 95 °F 112 °F (1980)
Min Temperature 70 °F 71 °F 52 °F (1927)
Degree Days  
Heating Degree Days 0 0  
Month to date heating degree days 0 0  
Since 1 July heating degree days 0 0  
Cooling Degree Days 18 18  
Month to date cooling degree days 34 36  
Year to date cooling degree days 4417 4210  
Growing Degree Days 32 (Base 50)    
Moisture  
Dew Point 50 °F    
Average Humidity 34    
Maximum Humidity 49    
Minimum Humidity 19    
Precipitation  
Precipitation 0.00 in 0.01 in 0.12 in (1954)
Month to date precipitation 0.00 0.02  
Year to date precipitation 2.31 2.64  
Sea Level Pressure  
Sea Level Pressure 29.80 in    
Wind  
Wind Speed 7 mph (South)    
Max Wind Speed 17 mph    
Max Gust Speed 23 mph    
Visibility 10 miles    
Events      
T = Trace of Precipitation, MM = Missing Value Source: NWS Daily Summary

Daily Weather History Graph

Daily Weather History Graph

Search for Another Location

Airport:

Trip Planner

Search our weather history database for the weather conditions in past years. The results will help you decide how hot, cold, wet, or windy it might be!

Date:

Astronomy

Oct. 02, 2013 Rise Set
Actual Time 6:33 AM MST 6:21 PM MST
Civil Twilight 6:08 AM MST 6:45 PM MST
Nautical Twilight 5:40 AM MST 7:14 PM MST
Astronomical Twilight 5:11 AM MST 7:42 PM MST
Moon 4:16 AM MST (10/2) 4:55 PM MST (10/2)
Length of Visible Light 12h 37m
Length of Day
11h 47m
Waning Crescent, 6% of the Moon is Illuminated
Oct 2
Waning Crescent
Oct 4
New
Oct 11
First Quarter
Oct 18
Full
Oct 26
Last Quarter

Hourly Weather History & Observations

Time (MST) Temp. Heat Index Dew Point Humidity Pressure Visibility Wind Dir Wind Speed Gust Speed Precip Events Conditions
12:57 AM 75.0 °F - 46.9 °F 37% 29.82 in 10.0 mi Calm Calm - N/A   Clear
1:57 AM 73.9 °F - 52.0 °F 46% 29.81 in 10.0 mi Calm Calm - N/A   Clear
2:57 AM 73.0 °F - 53.1 °F 49% 29.80 in 10.0 mi SE 6.9 mph - N/A   Clear
3:57 AM 71.1 °F - 50.0 °F 47% 29.81 in 10.0 mi Calm Calm - N/A   Clear
4:57 AM 71.1 °F - 48.9 °F 45% 29.81 in 10.0 mi ENE 4.6 mph - N/A   Clear
5:57 AM 71.1 °F - 44.1 °F 38% 29.82 in 10.0 mi NE 3.5 mph - N/A   Clear
6:57 AM 70.0 °F - 43.0 °F 38% 29.83 in 10.0 mi NNE 4.6 mph - N/A   Clear
7:57 AM 73.9 °F - 46.0 °F 37% 29.84 in 10.0 mi NE 4.6 mph - N/A   Clear
8:57 AM 78.8 °F - 50.0 °F 36% 29.86 in 10.0 mi ENE 5.8 mph - N/A   Partly Cloudy
9:57 AM 84.9 °F 84.4 °F 59.0 °F 41% 29.86 in 10.0 mi South 12.7 mph - N/A   Partly Cloudy
10:57 AM 89.1 °F 87.1 °F 55.0 °F 31% 29.86 in 10.0 mi South 15.0 mph - N/A   Clear
11:57 AM 91.0 °F 88.9 °F 55.0 °F 29% 29.84 in 10.0 mi SSW 15.0 mph - N/A   Clear
12:57 PM 91.9 °F 89.5 °F 53.1 °F 27% 29.81 in 10.0 mi South 12.7 mph - N/A   Clear
1:57 PM 93.9 °F - 52.0 °F 24% 29.78 in 10.0 mi South 11.5 mph 20.7 mph N/A   Clear
2:57 PM 93.9 °F 91.7 °F 54.0 °F 26% 29.76 in 10.0 mi South 9.2 mph - N/A   Clear
3:57 PM 95.0 °F - 51.1 °F 22% 29.74 in 10.0 mi South 9.2 mph - N/A   Clear
4:57 PM 93.9 °F - 48.9 °F 21% 29.73 in 10.0 mi South 10.4 mph - N/A   Clear
5:57 PM 93.0 °F - 45.0 °F 19% 29.73 in 10.0 mi SSW 9.2 mph - N/A   Clear
6:57 PM 88.0 °F - 46.9 °F 24% 29.74 in 10.0 mi South 11.5 mph - N/A   Clear
7:57 PM 82.9 °F - 48.0 °F 29% 29.75 in 10.0 mi SSW 9.2 mph - N/A   Clear
8:57 PM 80.1 °F - 48.9 °F 34% 29.76 in 10.0 mi South 9.2 mph - N/A   Clear
9:57 PM 78.1 °F - 50.0 °F 37% 29.77 in 10.0 mi South 5.8 mph - N/A   Clear
10:57 PM 73.9 °F - 50.0 °F 43% 29.78 in 10.0 mi SSW 3.5 mph - N/A   Clear
11:57 PM 72.0 °F - 53.1 °F 51% 29.78 in 10.0 mi NW 3.5 mph - N/A   Clear